SCP
-0 0 1 1 1 0 0 0 0 0 0 0 0 0 0 0 0 0 0 0 0 0 0 0 0 0 0 0 0 0 0 0 0 0 0 0 0 0 0 0 0 0 0
0 0 1 1 1 0 0 0 0 0 0 0 0 0 0 0 0 0 0 0 0 0 0 0 0 0 0 0 0 0 0 0 0 0 0 0 0 0 0 0 0 0 0
0 0 1 1 1 0 1 0 0 0 0 0 0 0 0 0 0 0 0 0 0 0 0 0 0 0 0 0 0 0 0 0 0 0 0 0 0 0 0 0 0 0 0
0 0 1 1 1 1 1 1 1 1 0 0 0 0 0 0 0 0 0 0 0 0 0 0 0 0 0 0 0 0 0 0 0 0 0 0 1 0 0 0 0 0 0
0 0 0 1 1 1 1 1 1 1 1 0 0 0 0 0 0 0 0 0 0 0 0 0 0 0 0 0 0 0 0 0 0 0 0 0 0 0 0 0 0 0 0
0 0 0 1 1 1 1 1 1 1 1 0 0 0 0 0 0 0 0 0 0 0 0 0 0 0 0 0 0 0 0 0 0 0 0 0 0 0 1 0 0 0 0
0 0 0 1 1 1 1 1 1 1 1 1 0 0 0 0 0 0 0 0 0 0 0 0 0 0 0 0 0 0 0 0 0 0 0 0 0 0 0 0 0 0 0
0 0 0 1 1 1 1 1 1 1 1 1 1 1 0 0 0 0 0 0 0 0 0 0 0 0 0 0 0 0 0 0 0 0 0 0 0 0 1 1 0 0 0
0 0 1 1 1 1 1 1 1 1 1 2 2 1 1 0 0 0 0 0 0 0 0 0 0 0 0 0 0 0 0 0 0 0 0 0 0 1 1 1 0 0 0
0 0 1 2 2 2 1 2 2 2 2 2 1 1 0 0 0 0 0 0 0 0 0 0 0 0 0 0 0 0 0 0 0 0 0 0 0 0 1 1 1 1 0
0 0 1 2 2 2 2 2 3 2 1 1 0 0 0 0 0 0 0 0 0 0 0 0 0 0 0 0 0 0 0 0 0 0 0 0 0 0 1 1 1 0 0
0 0 1 1 1 1 1 1 2 1 1 0 0 0 0 0 0 0 0 0 0 0 0 0 0 0 0 0 0 0 0 0 0 0 0 0 0 0 1 1 1 0 0
0 0 0 0 0 1 1 0 0 0 0 0 0 0 0 0 0 0 0 0 0 0 0 0 0 0 0 0 0 0 0 0 0 0 0 0 0 0 0 1 0 0 0
0 0 0 0 0 0 0 0 0 0 0 0 0 0 0 0 0 0 0 0 0 0 0 0 0 0 0 0 0 0 0 0 0 0 0 0 0 1 1 1 0 0 0
0 0 0 0 0 0 0 0 0 0 0 0 0 0 0 0 0 0 0 0 0 0 0 0 0 0 0 0 0 0 0 0 0 0 0 0 0 1 1 0 0 0 0
0 0 0 0 0 0 0 0 0 0 0 0 0 0 0 0 0 0 0 0 0 0 0 0 0 0 0 0 0 0 0 0 0 0 0 0 0 1 1 1 0 0 0
0 0 0 0 0 0 0 0 0 0 0 0 0 0 0 0 0 0 0 0 0 0 0 0 0 0 0 0 0 0 0 0 0 0 0 0 0 1 1 1 0 0 0
0 0 0 0 0 0 0 0 0 0 0 0 0 0 0 0 0 0 0 0 0 0 0 0 0 0 0 0 0 0 0 0 0 0 0 0 0 1 0 1 0 0 0
0 0 0 0 0 0 0 0 0 0 0 0 0 0 0 0 0 0 0 0 0 0 0 0 0 0 0 0 0 0 0 0 0 0 0 0 0 0 0 0 0 0 0
0 0 0 0 0 0 0 0 0 0 0 0 0 0 0 0 0 0 0 0 0 0 0 0 0 0 0 0 0 0 0 0 0 0 0 0 0 0 0 0 0 0 0
0 0 0 0 0 0 0 0 0 0 0 0 0 0 0 0 0 0 0 0 0 0 0 0 0 0 0 0 0 0 0 0 0 0 0 0 0 0 0 0 0 0 0
0 0 0 0 0 0 0 0 0 0 0 0 0 0 0 0 0 0 0 0 0 0 0 0 0 0 0 0 0 0 0 0 0 0 0 0 0 0 0 0 0 0 0
0 0 0 0 0 0 0 0 0 0 0 0 0 0 0 0 0 0 0 0 0 0 0 -0 0 -0 0 0 0 0 0 0 0 0 0 0 0 0 0 0 0 0 0
0 0 0 0 0 0 0 0 0 0 0 0 0 0 0 0 0 0 0 0 0 0 -0 0 0 0 0 0 0 0 0 0 0 0 0 0 0 0 0 0 0 0 0
0 0 0 0 0 0 0 0 0 0 0 0 0 0 0 0 0 0 0 0 -0 0 0 0 0 0 0 0 0 -0 0 0 0 0 0 0 0 0 0 0 0 0 0
0 0 0 0 0 0 0 0 0 0 0 0 0 0 0 0 0 -0 -0 -0 0 0 0 0 0 0 0 0 0 0 0 0 0 0 0 0 0 0 0 0 0 0 0
Wind_Speed_500mb
49 46 48 42 38 35 29 21 17 18 20 19 17 17 18 19 17 19 20 21 24 25 25 28 28 30 37 39 41 41 41 37 36 37 36 34 32 27 24 19 22 21 17
29 42 48 46 37 33 24 21 20 22 21 21 22 22 22 21 21 20 18 17 17 21 22 23 26 28 29 33 37 40 42 42 39 38 37 33 37 35 28 21 26 27 21
37 35 46 43 33 26 23 23 23 23 23 23 23 24 25 25 23 21 22 24 21 20 19 20 23 25 27 27 29 33 38 43 44 39 39 37 33 39 37 28 30 32 30
34 31 32 33 32 26 23 24 25 24 25 26 28 29 28 27 26 23 24 28 29 26 21 20 21 24 26 28 28 30 36 41 42 42 40 37 33 35 39 37 36 38 38
37 30 28 31 30 27 24 23 22 23 25 29 33 34 33 28 27 29 26 31 32 29 26 27 26 25 26 27 28 33 35 33 34 38 43 40 34 36 37 35 41 46 42
27 26 26 29 29 25 22 20 19 21 24 29 33 36 32 29 33 35 32 37 36 35 36 31 29 32 30 29 29 31 32 28 29 34 38 40 38 35 36 38 34 39 43
26 28 29 32 34 26 18 15 15 16 20 26 30 30 28 35 37 40 40 39 39 40 37 37 35 32 36 35 33 32 29 26 32 33 35 38 40 36 38 37 39 32 39
21 27 33 36 35 29 23 19 18 18 17 26 27 28 30 33 38 43 44 46 46 44 47 40 40 37 39 41 37 36 30 33 36 37 33 34 38 36 36 40 38 38 35
31 29 36 37 35 34 30 25 21 20 22 29 25 25 27 29 37 43 47 50 51 53 51 48 48 46 44 43 42 38 37 38 35 34 32 31 36 36 37 41 40 40 40
38 37 39 38 39 38 35 30 24 24 30 32 29 27 29 32 33 37 41 39 39 44 44 48 49 50 49 46 45 43 39 37 36 33 32 32 35 36 38 38 41 44 42
52 48 47 42 41 39 37 33 28 29 34 33 31 30 32 31 28 27 26 28 29 30 30 29 34 42 47 52 51 47 42 41 41 37 31 32 35 37 40 41 44 47 45
62 58 56 50 48 44 42 36 30 33 35 32 32 30 31 28 29 23 23 23 23 22 23 29 32 32 33 46 52 48 45 43 40 39 34 34 35 38 41 42 46 48 50
60 60 58 55 53 49 43 36 32 35 32 30 29 27 28 28 26 23 22 21 21 23 27 31 32 30 37 40 43 48 46 42 38 36 38 37 36 39 40 39 42 51 54
65 61 58 58 57 52 43 35 33 32 28 24 22 22 26 27 25 24 23 20 20 19 23 21 26 27 32 37 38 46 46 41 35 37 37 38 37 38 37 40 43 51 56
69 65 62 60 58 51 43 35 31 26 22 19 19 22 23 24 26 26 24 23 21 23 25 23 21 24 28 32 36 41 42 41 38 38 37 39 38 37 34 38 42 49 56
74 70 65 60 55 50 41 32 24 18 14 17 20 22 24 25 26 28 29 28 22 23 25 25 24 24 28 33 36 35 36 35 37 38 38 39 38 37 34 36 47 48 57
81 74 63 61 57 50 38 28 19 12 14 20 23 25 28 28 27 28 28 28 28 24 24 24 22 24 27 33 34 35 33 34 36 35 35 36 36 35 32 34 40 49 68
83 74 60 60 57 46 35 23 14 12 13 19 23 27 30 31 30 27 27 27 27 25 23 23 23 26 25 31 35 35 33 32 34 32 32 32 32 30 31 30 33 36 39
84 72 59 58 53 41 29 21 16 13 14 20 24 26 28 28 28 27 26 22 25 25 22 24 23 25 26 28 32 33 32 33 31 28 29 28 25 24 25 25 31 26 28
74 62 54 56 48 37 29 22 15 10 16 22 24 26 24 22 23 25 24 24 26 22 22 24 24 26 25 23 28 29 28 32 27 24 29 25 25 24 22 25 35 24 33
58 57 61 58 46 38 28 21 14 10 17 19 24 23 18 19 21 22 22 24 24 21 21 22 24 29 26 25 23 23 20 25 21 22 26 21 25 25 23 28 37 27 29
65 70 65 51 40 32 23 18 11 13 17 21 23 19 16 17 21 23 20 20 18 18 20 21 24 33 28 27 22 21 14 20 20 21 20 23 24 24 23 26 25 41 50
69 74 59 43 36 28 20 14 9 11 16 19 17 13 15 16 15 13 16 18 15 14 13 15 23 31 30 29 22 15 11 10 22 21 17 22 20 20 19 25 32 48 49
72 62 47 39 34 25 17 11 7 11 16 13 13 9 10 9 4 5 12 14 12 12 14 17 20 24 26 28 25 21 14 13 15 12 17 14 16 17 17 25 38 51 54
65 52 41 37 30 20 14 10 5 13 14 13 12 11 9 7 3 7 9 10 10 9 12 17 23 26 24 22 26 34 22 5 14 14 19 20 15 13 20 37 33 29 52
55 47 41 36 24 15 14 10 4 12 11 13 11 12 11 10 9 10 12 9 8 7 11 16 23 25 22 19 23 27 24 17 19 23 32 31 30 25 26 42 57 50 75
Wind_Direction_500mb
192 190 196 202 207 215 222 233 249 265 277 276 273 272 272 267 257 253 257 251 247 252 251 261 261 252 249 244 239 235 235 234 231 233 233 228 224 222 226 243 211 203 200
189 187 196 205 211 217 227 237 251 262 270 275 279 283 281 275 275 272 262 263 258 258 263 263 263 260 252 246 241 236 233 236 235 231 238 234 229 227 227 233 220 211 212
179 191 196 204 211 221 235 239 248 263 269 274 276 275 277 275 276 273 279 285 280 265 258 264 271 268 260 252 247 240 239 237 240 235 236 233 236 236 234 232 227 221 204
178 185 188 198 209 221 230 234 247 260 271 274 269 273 273 269 270 266 276 281 284 278 268 254 257 267 265 257 251 246 242 240 239 242 239 238 232 237 236 235 226 218 204
180 186 191 195 207 215 222 232 253 272 278 276 274 270 273 269 260 269 274 278 276 268 268 272 273 261 262 263 256 255 250 247 243 242 240 240 235 231 235 232 230 218 205
177 186 191 197 201 209 216 239 262 275 288 286 278 276 276 268 261 263 274 274 267 265 264 259 254 266 265 261 258 255 255 251 250 246 242 236 239 233 232 235 241 237 209
188 194 198 201 208 203 210 232 261 274 299 300 289 278 266 264 266 264 271 263 262 263 259 261 258 251 257 258 260 255 253 244 253 252 244 238 235 235 232 230 232 236 231
210 202 204 205 209 210 210 228 248 250 291 309 296 280 265 265 266 264 262 263 264 261 262 257 257 256 250 253 254 253 250 238 247 254 248 240 231 233 231 229 227 227 230
210 213 211 211 211 214 220 231 249 259 286 305 295 274 263 265 272 271 267 263 257 254 257 257 254 248 247 251 249 249 245 236 246 248 245 241 229 228 229 228 225 223 224
217 220 222 216 213 216 219 233 250 273 292 298 291 275 270 274 274 274 270 266 263 261 257 256 258 255 246 245 246 243 240 238 240 247 242 240 233 224 228 227 227 223 221
219 223 224 221 217 219 222 236 252 275 289 292 281 274 273 277 278 276 268 265 259 258 257 263 262 253 246 240 245 243 237 240 240 243 241 239 235 223 224 223 225 221 218
222 222 222 222 218 217 221 237 256 277 287 282 274 271 270 269 285 274 278 270 260 259 251 253 261 257 239 241 238 236 236 238 238 236 239 240 231 224 225 222 223 222 217
230 224 224 220 218 221 223 238 260 275 278 273 270 272 270 270 287 274 281 264 261 254 250 253 255 250 238 237 236 231 234 236 240 236 237 238 230 228 228 225 225 221 216
231 230 226 220 219 220 225 239 258 272 272 273 274 275 274 275 275 269 270 268 257 256 259 267 254 251 239 237 235 231 233 238 239 233 237 237 231 229 231 229 225 220 215
234 231 226 222 222 221 229 238 261 270 274 279 276 279 281 277 270 262 266 260 256 255 256 257 257 247 239 231 225 227 231 238 237 229 234 234 229 227 231 232 227 222 214
236 233 228 226 224 224 227 245 261 260 277 278 284 281 277 277 270 261 259 256 259 259 251 253 259 246 238 232 227 231 230 234 227 226 234 233 227 226 233 237 231 230 216
236 230 230 227 222 219 228 244 252 259 280 289 289 282 276 275 272 262 261 252 251 256 252 248 258 247 242 227 221 217 222 229 222 224 236 231 223 227 239 244 234 227 210
233 229 229 226 218 216 229 239 235 250 282 303 294 287 277 272 269 263 260 253 248 254 253 250 260 247 242 229 215 214 223 229 219 228 235 225 223 229 243 249 235 234 213
232 227 227 220 210 217 223 221 225 242 288 306 302 292 275 267 269 265 264 258 244 246 254 255 254 242 233 225 213 217 224 223 219 233 222 219 220 231 243 239 225 230 222
229 227 220 206 204 211 213 213 222 263 293 307 311 299 276 269 271 264 264 247 235 242 254 254 247 231 222 217 213 217 227 216 222 229 221 220 227 227 237 229 228 230 209
222 213 202 199 204 210 208 211 224 281 301 308 315 300 278 273 274 271 262 240 232 246 256 248 237 214 205 199 199 202 208 210 222 228 216 226 226 230 238 238 234 229 195
217 199 197 198 207 207 203 216 238 287 308 311 318 301 285 288 285 269 250 225 236 245 252 246 220 193 193 188 189 187 188 207 224 227 227 237 230 223 236 233 220 199 192
200 193 188 196 203 197 201 212 248 301 320 319 319 306 300 301 291 255 222 220 234 243 246 210 189 187 194 186 182 180 160 196 205 217 219 215 225 224 221 224 207 182 184
188 182 184 194 194 192 199 209 254 322 339 329 327 319 311 313 302 183 195 214 221 220 209 184 178 186 190 189 193 183 173 192 174 164 193 193 217 208 208 200 199 211 174
177 177 184 187 185 191 200 210 279 343 337 336 326 320 292 298 208 206 189 187 193 203 187 187 185 183 190 207 201 179 187 143 219 198 167 178 173 202 213 199 189 174 182
171 178 181 184 180 188 199 209 304 349 343 341 339 323 283 271 212 183 164 155 163 173 178 184 181 185 190 203 200 209 210 211 196 197 161 166 176 179 180 187 193 183 179
Wind_Speed_850mb
49 46 48 42 38 35 29 21 17 18 20 19 17 17 18 19 17 19 20 21 24 25 25 28 28 30 37 39 41 41 41 37 36 37 36 34 32 27 24 19 22 21 17
29 42 48 46 37 33 24 21 20 22 21 21 22 22 22 21 21 20 18 17 17 21 22 23 26 28 29 33 37 40 42 42 39 38 37 33 37 35 28 21 26 27 21
37 35 46 43 33 26 23 23 23 23 23 23 23 24 25 25 23 21 22 24 21 20 19 20 23 25 27 27 29 33 38 43 44 39 39 37 33 39 37 28 30 32 30
34 31 32 33 32 26 23 24 25 24 25 26 28 29 28 27 26 23 24 28 29 26 21 20 21 24 26 28 28 30 36 41 42 42 40 37 33 35 39 37 36 38 38
37 30 28 31 30 27 24 23 22 23 25 29 33 34 33 28 27 29 26 31 32 29 26 27 26 25 26 27 28 33 35 33 34 38 43 40 34 36 37 35 41 46 42
27 26 26 29 29 25 22 20 19 21 24 29 33 36 32 29 33 35 32 37 36 35 36 31 29 32 30 29 29 31 32 28 29 34 38 40 38 35 36 38 34 39 43
26 28 29 32 34 26 18 15 15 16 20 26 30 30 28 35 37 40 40 39 39 40 37 37 35 32 36 35 33 32 29 26 32 33 35 38 40 36 38 37 39 32 39
21 27 33 36 35 29 23 19 18 18 17 26 27 28 30 33 38 43 44 46 46 44 47 40 40 37 39 41 37 36 30 33 36 37 33 34 38 36 36 40 38 38 35
31 29 36 37 35 34 30 25 21 20 22 29 25 25 27 29 37 43 47 50 51 53 51 48 48 46 44 43 42 38 37 38 35 34 32 31 36 36 37 41 40 40 40
38 37 39 38 39 38 35 30 24 24 30 32 29 27 29 32 33 37 41 39 39 44 44 48 49 50 49 46 45 43 39 37 36 33 32 32 35 36 38 38 41 44 42
52 48 47 42 41 39 37 33 28 29 34 33 31 30 32 31 28 27 26 28 29 30 30 29 34 42 47 52 51 47 42 41 41 37 31 32 35 37 40 41 44 47 45
62 58 56 50 48 44 42 36 30 33 35 32 32 30 31 28 29 23 23 23 23 22 23 29 32 32 33 46 52 48 45 43 40 39 34 34 35 38 41 42 46 48 50
60 60 58 55 53 49 43 36 32 35 32 30 29 27 28 28 26 23 22 21 21 23 27 31 32 30 37 40 43 48 46 42 38 36 38 37 36 39 40 39 42 51 54
65 61 58 58 57 52 43 35 33 32 28 24 22 22 26 27 25 24 23 20 20 19 23 21 26 27 32 37 38 46 46 41 35 37 37 38 37 38 37 40 43 51 56
69 65 62 60 58 51 43 35 31 26 22 19 19 22 23 24 26 26 24 23 21 23 25 23 21 24 28 32 36 41 42 41 38 38 37 39 38 37 34 38 42 49 56
74 70 65 60 55 50 41 32 24 18 14 17 20 22 24 25 26 28 29 28 22 23 25 25 24 24 28 33 36 35 36 35 37 38 38 39 38 37 34 36 47 48 57
81 74 63 61 57 50 38 28 19 12 14 20 23 25 28 28 27 28 28 28 28 24 24 24 22 24 27 33 34 35 33 34 36 35 35 36 36 35 32 34 40 49 68
83 74 60 60 57 46 35 23 14 12 13 19 23 27 30 31 30 27 27 27 27 25 23 23 23 26 25 31 35 35 33 32 34 32 32 32 32 30 31 30 33 36 39
84 72 59 58 53 41 29 21 16 13 14 20 24 26 28 28 28 27 26 22 25 25 22 24 23 25 26 28 32 33 32 33 31 28 29 28 25 24 25 25 31 26 28
74 62 54 56 48 37 29 22 15 10 16 22 24 26 24 22 23 25 24 24 26 22 22 24 24 26 25 23 28 29 28 32 27 24 29 25 25 24 22 25 35 24 33
58 57 61 58 46 38 28 21 14 10 17 19 24 23 18 19 21 22 22 24 24 21 21 22 24 29 26 25 23 23 20 25 21 22 26 21 25 25 23 28 37 27 29
65 70 65 51 40 32 23 18 11 13 17 21 23 19 16 17 21 23 20 20 18 18 20 21 24 33 28 27 22 21 14 20 20 21 20 23 24 24 23 26 25 41 50
69 74 59 43 36 28 20 14 9 11 16 19 17 13 15 16 15 13 16 18 15 14 13 15 23 31 30 29 22 15 11 10 22 21 17 22 20 20 19 25 32 48 49
72 62 47 39 34 25 17 11 7 11 16 13 13 9 10 9 4 5 12 14 12 12 14 17 20 24 26 28 25 21 14 13 15 12 17 14 16 17 17 25 38 51 54
65 52 41 37 30 20 14 10 5 13 14 13 12 11 9 7 3 7 9 10 10 9 12 17 23 26 24 22 26 34 22 5 14 14 19 20 15 13 20 37 33 29 52
55 47 41 36 24 15 14 10 4 12 11 13 11 12 11 10 9 10 12 9 8 7 11 16 23 25 22 19 23 27 24 17 19 23 32 31 30 25 26 42 57 50 75
Wind_Direction_850mb
192 190 196 202 207 215 222 233 249 265 277 276 273 272 272 267 257 253 257 251 247 252 251 261 261 252 249 244 239 235 235 234 231 233 233 228 224 222 226 243 211 203 200
189 187 196 205 211 217 227 237 251 262 270 275 279 283 281 275 275 272 262 263 258 258 263 263 263 260 252 246 241 236 233 236 235 231 238 234 229 227 227 233 220 211 212
179 191 196 204 211 221 235 239 248 263 269 274 276 275 277 275 276 273 279 285 280 265 258 264 271 268 260 252 247 240 239 237 240 235 236 233 236 236 234 232 227 221 204
178 185 188 198 209 221 230 234 247 260 271 274 269 273 273 269 270 266 276 281 284 278 268 254 257 267 265 257 251 246 242 240 239 242 239 238 232 237 236 235 226 218 204
180 186 191 195 207 215 222 232 253 272 278 276 274 270 273 269 260 269 274 278 276 268 268 272 273 261 262 263 256 255 250 247 243 242 240 240 235 231 235 232 230 218 205
177 186 191 197 201 209 216 239 262 275 288 286 278 276 276 268 261 263 274 274 267 265 264 259 254 266 265 261 258 255 255 251 250 246 242 236 239 233 232 235 241 237 209
188 194 198 201 208 203 210 232 261 274 299 300 289 278 266 264 266 264 271 263 262 263 259 261 258 251 257 258 260 255 253 244 253 252 244 238 235 235 232 230 232 236 231
210 202 204 205 209 210 210 228 248 250 291 309 296 280 265 265 266 264 262 263 264 261 262 257 257 256 250 253 254 253 250 238 247 254 248 240 231 233 231 229 227 227 230
210 213 211 211 211 214 220 231 249 259 286 305 295 274 263 265 272 271 267 263 257 254 257 257 254 248 247 251 249 249 245 236 246 248 245 241 229 228 229 228 225 223 224
217 220 222 216 213 216 219 233 250 273 292 298 291 275 270 274 274 274 270 266 263 261 257 256 258 255 246 245 246 243 240 238 240 247 242 240 233 224 228 227 227 223 221
219 223 224 221 217 219 222 236 252 275 289 292 281 274 273 277 278 276 268 265 259 258 257 263 262 253 246 240 245 243 237 240 240 243 241 239 235 223 224 223 225 221 218
222 222 222 222 218 217 221 237 256 277 287 282 274 271 270 269 285 274 278 270 260 259 251 253 261 257 239 241 238 236 236 238 238 236 239 240 231 224 225 222 223 222 217
230 224 224 220 218 221 223 238 260 275 278 273 270 272 270 270 287 274 281 264 261 254 250 253 255 250 238 237 236 231 234 236 240 236 237 238 230 228 228 225 225 221 216
231 230 226 220 219 220 225 239 258 272 272 273 274 275 274 275 275 269 270 268 257 256 259 267 254 251 239 237 235 231 233 238 239 233 237 237 231 229 231 229 225 220 215
234 231 226 222 222 221 229 238 261 270 274 279 276 279 281 277 270 262 266 260 256 255 256 257 257 247 239 231 225 227 231 238 237 229 234 234 229 227 231 232 227 222 214
236 233 228 226 224 224 227 245 261 260 277 278 284 281 277 277 270 261 259 256 259 259 251 253 259 246 238 232 227 231 230 234 227 226 234 233 227 226 233 237 231 230 216
236 230 230 227 222 219 228 244 252 259 280 289 289 282 276 275 272 262 261 252 251 256 252 248 258 247 242 227 221 217 222 229 222 224 236 231 223 227 239 244 234 227 210
233 229 229 226 218 216 229 239 235 250 282 303 294 287 277 272 269 263 260 253 248 254 253 250 260 247 242 229 215 214 223 229 219 228 235 225 223 229 243 249 235 234 213
232 227 227 220 210 217 223 221 225 242 288 306 302 292 275 267 269 265 264 258 244 246 254 255 254 242 233 225 213 217 224 223 219 233 222 219 220 231 243 239 225 230 222
229 227 220 206 204 211 213 213 222 263 293 307 311 299 276 269 271 264 264 247 235 242 254 254 247 231 222 217 213 217 227 216 222 229 221 220 227 227 237 229 228 230 209
222 213 202 199 204 210 208 211 224 281 301 308 315 300 278 273 274 271 262 240 232 246 256 248 237 214 205 199 199 202 208 210 222 228 216 226 226 230 238 238 234 229 195
217 199 197 198 207 207 203 216 238 287 308 311 318 301 285 288 285 269 250 225 236 245 252 246 220 193 193 188 189 187 188 207 224 227 227 237 230 223 236 233 220 199 192
200 193 188 196 203 197 201 212 248 301 320 319 319 306 300 301 291 255 222 220 234 243 246 210 189 187 194 186 182 180 160 196 205 217 219 215 225 224 221 224 207 182 184
188 182 184 194 194 192 199 209 254 322 339 329 327 319 311 313 302 183 195 214 221 220 209 184 178 186 190 189 193 183 173 192 174 164 193 193 217 208 208 200 199 211 174
177 177 184 187 185 191 200 210 279 343 337 336 326 320 292 298 208 206 189 187 193 203 187 187 185 183 190 207 201 179 187 143 219 198 167 178 173 202 213 199 189 174 182
171 178 181 184 180 188 199 209 304 349 343 341 339 323 283 271 212 183 164 155 163 173 178 184 181 185 190 203 200 209 210 211 196 197 161 166 176 179 180 187 193 183 179